Regional Weather Roundup
Issued by NWS

Home | Current Version | Previous Version | Graphics & Text | Print | Product List | Glossary On
Versions: 1 2 3 4 5 6 7 8 9 10 11 12 13 14 15 16 17 18 19 20 21 22 23 24 25 26 27 28 29 30 31 32 33 34 35 36 37 38 39 40 41 42 43 44 45 46 47 48 49 50
000
ASUS45 KCYS 190310
RWRWY

WYOMING REGIONAL WEATHER ROUNDUP
NATIONAL WEATHER SERVICE CHEYENNE WY
800 PM MST THU DEC 18 2014

NOTE:  "FAIR" INDICATES FEW OR NO CLOUDS BELOW 12,000 FEET
WITH NO SIGNIFICANT WEATHER AND/OR OBSTRUCTIONS TO VISIBILITY.

WYZ001-190400-
YELLOWSTONE NATIONAL PARK

CITY           SKY/WX    TMP DP  RH WIND       PRES   REMARKS
LK YELLOWSTONE   N/A     23  16  74 VRB7      30.08S WCI  15
W YELLOWSTONE  NOT AVBL

$$
WYZ002>013-054>058-071-098>099-190400-
NORTHERN WYOMING

CITY           SKY/WX    TMP DP  RH WIND       PRES   REMARKS
JACKSON        CLOUDY    25  25 100 S7        30.10R WCI  17
CODY           FAIR      23  19  86 CALM      30.00S
GREYBULL       FAIR      13   9  84 CALM      30.07S
WORLAND        FAIR       5   1  83 S3        30.07R
SHERIDAN       FAIR      26  14  60 S7        29.98S WCI  18
BUFFALO        FAIR      27  14  58 W8        29.99S WCI  19
GILLETTE       FAIR      29  16  58 SW13      29.99S WCI  19
HULETT           N/A    N/A N/A N/A MISG        N/A
NEWCASTLE      FAIR      23  19  86 SE6       30.04R WCI  16

$$
WYZ014>020-022>026-101>103-190400-
CENTRAL WYOMING

CITY           SKY/WX    TMP DP  RH WIND       PRES   REMARKS
BIG PINEY      FAIR      15   9  76 CALM      30.11S
PINEDALE       FAIR      10   9  92 NW5       30.11S WCI   2
DUBOIS         LGT SNOW  23  18  80 NW9       30.04S WCI  13
LANDER         FAIR       5   2  87 CALM      30.06S FOG
RIVERTON       FOG       10   6  84 CALM      30.08S VSB 1/4
CASPER         FAIR      22  16  78 SW15      30.06R WCI   9
DOUGLAS        FAIR      23  16  74 NW3       30.06R

$$
WYZ021-027>030-104>119-190400-
SOUTHERN WYOMING

CITY           SKY/WX    TMP DP  RH WIND       PRES   REMARKS
EVANSTON       CLOUDY    24  21  88 SW8       30.14R WCI  15
KEMMERER       FAIR      27  21  80 W9        30.12S WCI  17
FORT BRIDGER   MOCLDY    27  23  84 W7        30.16S WCI  20
ROCK SPRINGS   FAIR      22  16  78 SW9       30.12R WCI  12
DIXON          FOG       23  22  96 W3        30.18R VSB 1/4
RAWLINS        FAIR      20  15  81 W12       30.10S WCI   8
SARATOGA       FAIR      10   9  92 S5        30.12S WCI   2
LARAMIE        FAIR      17  11  77 CALM      30.06R
CHEYENNE       FAIR      29  15  56 SW9       30.06R WCI  20
TORRINGTON     FAIR      26  21  81 SE5       30.05R WCI  20
PINE BLUFFS    FAIR      27  21  80 W6        30.08R WCI  20

$$


USA.gov is the U.S. government's official web portal to all federal, state and local government web resources and services.